Wind_Speed
43 47 44 46 49 53 54 51 51 54 55 56 50 49 53 55 58 57 56 56 61 61 60 60 66 69 73 79 78 74 74 74 75 71 68 63 55 50 46 44 38 46 42
51 49 48 51 52 57 59 55 53 56 58 61 56 55 56 58 64 62 62 65 66 61 57 58 69 72 73 77 82 80 78 77 76 76 73 70 65 53 48 50 45 35 40
55 54 55 57 58 60 62 60 56 57 58 52 49 52 59 62 62 65 69 69 60 56 55 59 69 73 74 76 80 82 81 80 78 77 76 72 68 61 54 46 45 36 39
58 60 62 62 64 65 69 61 59 58 52 49 52 56 60 63 66 68 72 69 55 53 55 59 62 75 76 77 79 81 83 83 82 79 78 76 74 69 56 52 50 44 39
63 66 65 67 67 71 68 62 55 47 46 53 60 64 68 72 64 68 69 61 55 53 55 59 60 65 71 76 81 83 83 85 84 83 84 80 78 76 70 53 49 52 35
69 70 68 68 72 67 66 58 46 49 55 60 64 71 74 68 67 64 60 55 54 55 55 59 61 63 64 71 77 83 84 86 87 87 85 84 81 79 75 70 58 50 48
72 72 68 69 68 69 64 52 52 56 61 65 72 72 66 63 59 54 51 49 51 56 59 61 64 65 67 66 75 78 85 86 86 88 89 90 87 83 80 76 72 60 54
72 69 68 69 70 71 59 57 58 63 68 76 72 63 63 56 49 47 48 49 52 55 61 65 67 69 69 69 73 79 83 86 88 88 89 91 92 91 86 80 77 74 63
70 68 73 72 74 70 59 62 65 73 77 73 63 59 53 50 51 48 48 50 51 54 57 62 66 70 71 71 69 76 83 84 89 92 92 93 93 91 93 86 82 77 75
68 71 71 75 68 62 64 70 76 79 74 61 55 56 53 50 48 49 49 51 50 53 54 57 60 63 65 67 70 72 79 85 88 90 95 97 94 92 93 91 87 83 74
68 71 75 70 63 64 70 74 81 71 60 54 52 49 47 47 47 47 49 49 50 51 52 55 60 59 62 66 70 76 76 78 84 90 92 97 98 95 92 92 89 87 81
70 72 69 65 66 70 72 76 62 56 54 52 50 46 42 43 46 47 48 50 51 51 54 56 58 61 64 68 71 72 74 80 82 85 91 92 97 98 96 93 93 89 84
70 74 68 68 70 72 73 64 55 52 50 50 48 45 43 43 44 46 48 50 51 52 53 56 58 59 62 66 69 72 75 77 81 85 87 90 93 93 97 94 92 92 88
73 72 67 68 70 74 60 56 52 49 48 48 48 45 44 46 48 47 47 46 46 46 48 50 51 53 55 59 62 66 70 73 77 82 87 87 88 89 91 93 91 91 89
71 68 63 66 76 62 57 52 50 49 51 49 45 47 47 45 43 42 42 41 40 40 42 42 42 45 48 51 56 60 64 68 73 78 81 86 88 87 84 85 90 89 89
68 62 65 75 64 56 53 51 50 49 48 47 47 45 42 39 40 39 36 35 34 34 36 37 39 42 43 45 47 53 59 64 67 72 75 79 83 85 82 80 81 84 85
62 62 69 68 57 56 54 49 50 47 47 46 43 39 40 39 33 30 30 30 32 34 36 36 39 40 42 42 42 46 51 56 61 63 67 72 75 77 78 79 76 70 71
61 63 71 61 58 59 53 51 47 45 43 41 38 38 35 31 29 29 26 30 34 37 40 44 44 43 40 39 39 40 40 44 50 54 57 62 67 66 71 75 75 72 69
64 70 65 58 61 57 51 46 43 40 38 36 33 28 26 24 24 27 31 35 38 39 40 37 36 36 34 33 34 35 35 33 37 43 49 55 58 62 68 73 73 75 77
64 66 61 59 59 53 48 42 39 36 36 32 28 27 23 23 27 31 35 38 36 34 31 29 29 29 30 30 31 31 33 33 35 38 44 52 54 60 66 71 74 77 81
67 62 58 58 53 47 41 36 35 35 32 27 26 23 23 24 27 34 38 37 32 27 24 22 22 24 24 24 25 28 31 33 34 37 41 47 50 56 65 71 75 76 78
62 57 54 55 47 40 34 35 35 31 25 23 22 19 23 29 35 40 38 32 27 20 16 15 16 16 17 20 24 26 28 31 35 37 39 44 50 57 63 72 73 73 75
57 54 57 50 41 37 34 35 32 25 21 18 17 23 29 35 38 38 34 28 19 13 10 10 11 12 14 17 20 23 27 31 31 34 40 44 51 58 63 67 68 69 69
51 53 57 44 36 33 32 32 25 18 13 18 23 28 31 37 35 33 30 20 9 6 5 6 7 9 12 14 20 26 28 31 34 39 43 48 52 57 63 67 67 65 63
50 54 44 37 33 31 31 25 17 14 12 19 25 28 33 36 32 29 19 6 1 2 3 5 7 14 16 21 23 26 27 31 36 39 44 50 53 55 62 65 65 62 61
48 45 39 32 29 28 26 20 15 12 14 22 29 28 34 33 29 21 7 3 6 6 7 9 12 17 20 22 24 26 29 32 36 39 42 48 54 57 60 63 64 65 68
Wind_Direction
311 310 305 311 312 313 304 301 300 303 303 306 288 289 285 281 283 291 292 291 289 283 281 253 243 239 237 237 238 236 235 234 234 235 232 232 231 233 232 235 241 246 249
314 304 299 307 309 309 311 303 298 302 300 298 292 285 291 285 286 292 296 295 289 281 271 251 241 238 235 234 234 235 235 235 233 233 233 229 231 229 232 232 234 239 248
307 307 308 307 306 310 312 311 301 301 297 297 299 293 293 292 291 289 293 292 283 269 259 245 239 236 236 232 233 232 233 234 233 233 231 232 229 229 228 227 228 233 245
306 308 311 308 306 310 313 310 306 300 297 298 297 295 295 295 292 290 291 289 276 262 251 243 238 235 234 233 231 232 232 232 232 232 231 229 231 230 227 225 229 231 238
307 310 309 309 309 312 313 309 302 299 303 304 299 297 296 291 288 289 286 279 273 261 248 241 240 237 238 235 231 231 231 230 230 231 230 229 230 231 230 225 227 228 225
307 309 308 308 311 313 310 307 306 306 304 302 299 301 296 286 284 282 278 271 269 260 251 244 240 241 239 237 234 231 229 231 230 228 229 229 229 230 230 231 226 226 217
306 306 308 311 311 312 309 307 306 304 304 300 300 296 291 286 281 275 271 268 264 256 253 247 243 241 241 240 236 233 231 230 230 229 228 228 227 228 230 229 230 224 221
303 305 308 310 311 311 311 310 308 305 305 302 299 292 289 284 277 272 269 267 264 257 249 250 248 246 245 245 239 235 232 230 229 230 228 228 227 228 229 228 228 227 226
304 308 309 310 310 310 308 309 308 307 306 302 296 294 290 283 276 273 268 267 264 258 253 250 250 251 250 250 247 238 234 234 230 229 229 228 228 226 228 228 227 227 226
307 310 310 310 310 310 313 312 309 306 301 298 294 291 286 284 275 271 271 267 263 258 255 250 250 251 251 248 246 242 239 236 233 232 231 230 229 226 225 226 226 225 226
310 311 309 310 312 314 313 310 306 302 299 295 295 293 281 279 276 274 273 269 263 260 257 256 253 252 252 251 247 244 240 237 237 235 233 233 231 229 226 225 226 225 224
307 307 311 312 315 313 314 310 306 302 296 294 294 291 282 276 275 273 271 268 267 264 259 257 254 252 251 251 251 249 245 241 238 237 235 234 232 230 226 226 224 224 226
308 310 311 312 314 315 313 307 306 300 297 295 293 288 285 282 279 277 273 270 268 265 263 260 257 256 254 252 250 248 246 243 239 237 236 234 233 231 230 226 225 224 226
310 310 312 315 317 317 309 309 305 302 302 298 291 293 292 288 284 281 277 272 269 268 266 262 258 256 254 252 250 250 247 243 239 237 234 234 233 232 230 229 225 224 225
309 310 312 317 320 314 314 309 306 303 305 300 300 298 295 292 289 284 280 275 271 266 263 261 259 254 253 251 248 247 246 244 240 236 233 232 232 231 228 227 226 223 224
309 312 316 318 317 315 313 311 309 306 306 304 303 299 296 293 287 283 280 278 274 273 272 273 271 266 262 255 251 247 243 242 239 237 233 231 230 229 226 224 223 223 223
311 316 319 321 318 316 314 312 309 309 306 305 301 299 296 292 285 282 282 285 285 289 289 287 283 275 267 259 254 246 241 238 238 236 233 231 229 226 223 221 219 216 221
316 319 323 319 318 316 314 312 310 307 306 303 301 300 296 295 294 293 290 290 293 297 294 285 279 271 264 256 249 244 239 234 233 232 231 229 226 222 215 215 212 206 204
320 322 323 318 316 313 314 311 309 306 305 305 306 304 299 298 305 308 307 304 300 296 288 279 272 266 258 251 245 241 237 232 227 224 224 223 221 214 210 209 205 201 190
321 322 318 314 312 312 311 311 307 310 311 312 317 312 314 322 324 321 311 304 299 293 283 274 264 259 254 248 241 236 233 226 220 217 215 213 211 206 204 202 200 199 197
321 319 315 314 313 313 312 307 314 316 317 325 322 329 334 331 325 319 310 305 299 292 283 268 257 252 245 238 233 227 224 219 210 207 206 205 201 198 196 196 196 197 196
318 314 316 316 314 313 312 313 320 318 326 326 330 339 333 323 321 317 313 303 300 289 270 262 256 244 238 227 217 215 212 207 201 198 194 190 187 188 188 191 190 196 197
313 316 316 316 313 310 315 318 319 323 326 326 334 334 334 328 320 316 311 306 302 276 261 251 240 231 223 212 207 203 198 194 191 187 182 181 180 181 182 184 185 190 193
315 318 315 310 309 315 318 320 320 322 328 331 341 336 334 326 322 318 315 310 289 275 241 234 219 198 178 184 189 188 184 180 178 177 173 174 176 175 176 181 181 182 186
317 312 311 308 311 317 321 323 323 327 327 339 340 335 335 332 326 318 319 304 299 156 165 174 164 151 159 171 176 170 167 170 168 170 170 169 169 171 177 179 176 177 182
312 310 311 311 316 320 325 329 326 335 338 342 334 334 336 332 325 324 338 45 103 106 131 124 147 156 157 158 161 162 163 164 164 162 163 166 170 170 174 171 175 177 184
Height
10901 10898 10895 10894 10890 10887 10884 10880 10876 10873 10871 10868 10867 10865 10864 10863 10862 10861 10862 10860 10859 10857 10856 10857 10862 10869 10876 10881 10886 10893 10899 10904 10908 10914 10922 10926 10933 10937 10939 10943 10948 10948 10951
10894 10891 10889 10885 10882 10879 10876 10872 10868 10864 10861 10857 10854 10853 10850 10849 10847 10844 10844 10843 10841 10840 10840 10840 10844 10852 10858 10866 10872 10877 10885 10891 10895 10902 10910 10917 10922 10928 10933 10937 10942 10944 10947
10886 10883 10880 10876 10873 10868 10864 10860 10855 10851 10848 10844 10841 10838 10836 10834 10832 10829 10827 10825 10823 10824 10825 10826 10829 10834 10842 10850 10857 10863 10869 10877 10884 10890 10899 10907 10913 10919 10926 10931 10936 10940 10942
10874 10870 10867 10864 10859 10856 10853 10847 10843 10839 10835 10831 10829 10828 10824 10820 10817 10812 10809 10807 10805 10808 10809 10811 10814 10819 10824 10832 10839 10846 10854 10860 10870 10877 10885 10895 10902 10910 10917 10924 10930 10937 10938
10861 10858 10855 10850 10847 10843 10837 10834 10830 10826 10822 10819 10816 10813 10810 10806 10801 10797 10792 10789 10788 10790 10794 10798 10801 10805 10809 10815 10823 10831 10836 10845 10854 10862 10870 10881 10890 10899 10909 10916 10924 10930 10935
10849 10846 10842 10839 10833 10827 10824 10819 10815 10812 10810 10807 10802 10796 10791 10788 10784 10781 10778 10774 10773 10775 10778 10783 10788 10791 10795 10800 10806 10815 10822 10830 10839 10846 10856 10869 10877 10886 10896 10907 10916 10922 10928
10837 10833 10831 10828 10822 10816 10810 10805 10802 10800 10797 10792 10787 10779 10773 10770 10767 10765 10763 10762 10763 10763 10764 10768 10773 10778 10782 10784 10791 10799 10808 10815 10824 10832 10840 10850 10862 10873 10883 10894 10905 10913 10916
10828 10824 10822 10818 10810 10805 10798 10792 10789 10786 10781 10776 10767 10761 10758 10753 10752 10751 10750 10750 10748 10748 10750 10752 10756 10760 10765 10771 10776 10782 10790 10799 10809 10817 10825 10834 10844 10858 10870 10879 10891 10900 10906
10817 10813 10810 10804 10798 10792 10786 10780 10775 10770 10763 10756 10747 10743 10740 10738 10736 10737 10737 10736 10736 10735 10735 10738 10741 10746 10752 10757 10762 10767 10773 10783 10794 10801 10807 10815 10827 10841 10855 10865 10876 10886 10895
10807 10803 10797 10791 10784 10780 10774 10766 10759 10752 10745 10740 10736 10729 10724 10723 10722 10722 10722 10721 10721 10721 10721 10723 10726 10729 10734 10739 10745 10751 10755 10763 10772 10782 10791 10798 10811 10824 10836 10848 10861 10872 10882
10796 10791 10786 10778 10773 10767 10762 10752 10743 10736 10729 10725 10721 10717 10713 10710 10707 10707 10706 10705 10705 10707 10709 10710 10711 10714 10716 10720 10725 10731 10740 10747 10753 10764 10772 10782 10796 10809 10822 10834 10846 10858 10871
10788 10782 10773 10766 10760 10754 10746 10736 10728 10722 10716 10711 10707 10704 10702 10699 10695 10693 10692 10690 10691 10692 10693 10695 10696 10698 10701 10704 10707 10713 10720 10727 10735 10744 10753 10764 10778 10791 10805 10821 10834 10846 10859
10778 10770 10761 10753 10747 10739 10730 10722 10716 10708 10702 10697 10693 10691 10687 10684 10681 10680 10679 10676 10675 10675 10677 10678 10680 10682 10683 10685 10689 10693 10700 10708 10715 10722 10733 10744 10758 10773 10791 10806 10821 10835 10847
10767 10760 10753 10744 10734 10725 10715 10710 10702 10695 10689 10684 10680 10676 10673 10670 10667 10665 10664 10662 10660 10659 10659 10660 10662 10665 10666 10668 10670 10673 10678 10685 10695 10703 10714 10726 10738 10756 10775 10793 10809 10824 10836
10758 10750 10741 10733 10724 10714 10705 10698 10691 10683 10678 10671 10666 10663 10660 10656 10652 10649 10648 10646 10646 10645 10645 10645 10647 10648 10649 10651 10654 10657 10659 10664 10672 10681 10694 10708 10721 10738 10760 10779 10796 10812 10827
10747 10740 10730 10722 10712 10703 10696 10688 10680 10673 10666 10660 10656 10651 10647 10645 10642 10637 10634 10633 10633 10633 10632 10633 10633 10633 10634 10635 10638 10639 10643 10647 10654 10663 10678 10691 10705 10723 10744 10764 10783 10803 10818
10737 10728 10719 10710 10701 10693 10686 10678 10670 10662 10657 10652 10647 10643 10638 10634 10631 10628 10626 10623 10621 10621 10621 10619 10618 10618 10618 10619 10621 10624 10629 10634 10641 10651 10663 10675 10691 10710 10732 10750 10772 10795 10811
10727 10717 10709 10700 10692 10683 10676 10668 10660 10655 10650 10645 10640 10635 10630 10625 10621 10619 10617 10614 10613 10610 10608 10605 10603 10602 10604 10605 10608 10612 10617 10622 10631 10641 10651 10663 10678 10697 10718 10735 10758 10780 10797
10715 10706 10697 10690 10682 10675 10667 10659 10654 10648 10643 10637 10631 10626 10621 10617 10613 10610 10607 10604 10602 10599 10596 10592 10589 10589 10591 10594 10598 10601 10607 10614 10622 10631 10641 10653 10666 10685 10703 10722 10743 10761 10784
10708 10698 10691 10683 10673 10667 10658 10651 10646 10640 10635 10628 10622 10618 10613 10608 10604 10602 10599 10595 10592 10587 10583 10581 10580 10580 10582 10585 10588 10593 10599 10606 10613 10622 10631 10642 10656 10674 10692 10711 10731 10747 10767
10700 10692 10684 10675 10665 10658 10651 10645 10640 10633 10627 10620 10616 10612 10607 10603 10600 10595 10590 10585 10580 10576 10573 10572 10573 10573 10574 10577 10581 10586 10592 10599 10607 10615 10624 10636 10652 10667 10683 10701 10720 10737 10756
10692 10685 10676 10667 10658 10651 10645 10638 10632 10627 10621 10616 10612 10608 10604 10599 10594 10587 10580 10575 10572 10568 10567 10566 10567 10567 10569 10571 10575 10580 10587 10594 10601 10610 10620 10632 10646 10662 10679 10695 10716 10731 10747
10686 10677 10668 10659 10652 10645 10638 10631 10627 10622 10616 10613 10609 10605 10599 10593 10587 10579 10573 10568 10566 10563 10562 10563 10564 10564 10566 10568 10573 10579 10585 10592 10601 10610 10620 10631 10644 10660 10678 10696 10713 10728 10742
10677 10667 10660 10654 10647 10639 10633 10627 10622 10618 10613 10610 10606 10601 10595 10588 10581 10574 10568 10564 10561 10561 10560 10561 10562 10563 10565 10570 10574 10579 10585 10592 10600 10609 10619 10631 10645 10661 10679 10694 10712 10727 10743
10669 10662 10656 10649 10641 10634 10628 10623 10619 10614 10612 10608 10604 10598 10591 10584 10577 10571 10565 10560 10560 10560 10560 10561 10562 10564 10568 10572 10575 10581 10588 10595 10603 10613 10623 10634 10648 10663 10677 10693 10712 10729 10743
10665 10657 10651 10643 10636 10630 10625 10621 10616 10613 10611 10606 10601 10595 10588 10581 10575 10569 10563 10561 10560 10560 10561 10563 10565 10567 10570 10574 10579 10584 10591 10599 10607 10617 10628 10639 10650 10663 10680 10698 10713 10726 10738